owner,sensor,date,latitude,longitude,vertical_datum,sea_water_practical_salinity,qcFlag 
TABS,ioos:station:wmo:42050:1,2014-04-01T00:00:00Z,28.8425,-94.2433,2.0,34.7787,11111222 
TABS,ioos:station:wmo:42050:1,2014-04-01T00:30:00Z,28.8425,-94.2433,2.0,34.7786,11111222 
TABS,ioos:station:wmo:42050:1,2014-04-01T01:00:00Z,28.8425,-94.2433,2.0,34.7841,11111222 
TABS,ioos:station:wmo:42050:1,2014-04-01T01:30:00Z,28.8425,-94.2433,2.0,34.7834,11111222 
TABS,ioos:station:wmo:42050:1,2014-04-01T02:00:00Z,28.8425,-94.2433,2.0,34.7834,11111222 
TABS,ioos:station:wmo:42050:1,2014-04-01T02:30:00Z,28.8425,-94.2433,2.0,34.7838,11111222 
TABS,ioos:station:wmo:42050:1,2014-04-01T03:00:00Z,28.8425,-94.2433,2.0,34.7826,11111222 
TABS,ioos:station:wmo:42050:1,2014-04-01T03:30:00Z,28.8425,-94.2433,2.0,34.781,11111222 
TABS,ioos:station:wmo:42050:1,2014-04-01T04:00:00Z,28.8425,-94.2433,2.0,34.7783,11111222 
TABS,ioos:station:wmo:42050:1,2014-04-01T04:30:00Z,28.8425,-94.2433,2.0,34.7778,11111222 
TABS,ioos:station:wmo:42050:1,2014-04-01T05:00:00Z,28.8425,-94.2433,2.0,34.7744,11111222 
TABS,ioos:station:wmo:42050:1,2014-04-01T05:30:00Z,28.8425,-94.2433,2.0,34.7733,11111222 
TABS,ioos:station:wmo:42050:1,2014-04-01T06:00:00Z,28.8425,-94.2433,2.0,34.7716,11111222 
TABS,ioos:station:wmo:42050:1,2014-04-01T06:30:00Z,28.8425,-94.2433,2.0,34.7685,11111222 
TABS,ioos:station:wmo:42050:1,2014-04-01T07:00:00Z,28.8425,-94.2433,2.0,34.7664,11111222 
TABS,ioos:station:wmo:42050:1,2014-04-01T07:30:00Z,28.8425,-94.2433,2.0,34.766,11111222 
TABS,ioos:station:wmo:42050:1,2014-04-01T08:00:00Z,28.8425,-94.2433,2.0,34.7661,11111222 
TABS,ioos:station:wmo:42050:1,2014-04-01T08:30:00Z,28.8425,-94.2433,2.0,34.7647,11111222 
TABS,ioos:station:wmo:42050:1,2014-04-01T09:00:00Z,28.8425,-94.2433,2.0,34.7635,11111222 
TABS,ioos:station:wmo:42050:1,2014-04-01T09:30:00Z,28.8425,-94.2433,2.0,34.7628,11111222 
TABS,ioos:station:wmo:42050:1,2014-04-01T10:00:00Z,28.8425,-94.2433,2.0,34.7618,11111222 
TABS,ioos:station:wmo:42050:1,2014-04-01T10:30:00Z,28.8425,-94.2433,2.0,34.7621,11111222 
TABS,ioos:station:wmo:42050:1,2014-04-01T11:00:00Z,28.8425,-94.2433,2.0,34.7611,11111222 
TABS,ioos:station:wmo:42050:1,2014-04-01T11:30:00Z,28.8425,-94.2433,2.0,34.7603,11111222 
TABS,ioos:station:wmo:42050:1,2014-04-01T12:00:00Z,28.8425,-94.2433,2.0,34.7603,11111222 
TABS,ioos:station:wmo:42050:1,2014-04-01T12:30:00Z,28.8425,-94.2433,2.0,34.758,11111222 
TABS,ioos:station:wmo:42050:1,2014-04-01T13:00:00Z,28.8425,-94.2433,2.0,34.7567,11111222 
TABS,ioos:station:wmo:42050:1,2014-04-01T13:30:00Z,28.8425,-94.2433,2.0,34.755,11111222 
TABS,ioos:station:wmo:42050:1,2014-04-01T14:00:00Z,28.8425,-94.2433,2.0,34.7536,11111222 
TABS,ioos:station:wmo:42050:1,2014-04-01T14:30:00Z,28.8425,-94.2433,2.0,34.7523,11111222 
TABS,ioos:station:wmo:42050:1,2014-04-01T15:00:00Z,28.8425,-94.2433,2.0,34.751,11111222 
TABS,ioos:station:wmo:42050:1,2014-04-01T15:30:00Z,28.8425,-94.2433,2.0,34.7506,11111222 
TABS,ioos:station:wmo:42050:1,2014-04-01T16:00:00Z,28.8425,-94.2433,2.0,34.7502,11111222 
TABS,ioos:station:wmo:42050:1,2014-04-01T16:30:00Z,28.8425,-94.2433,2.0,34.7491,11111222 
TABS,ioos:station:wmo:42050:1,2014-04-01T17:00:00Z,28.8425,-94.2433,2.0,34.7519,11111222 
TABS,ioos:station:wmo:42050:1,2014-04-01T17:30:00Z,28.8425,-94.2433,2.0,34.7526,11111222 
TABS,ioos:station:wmo:42050:1,2014-04-01T18:00:00Z,28.8425,-94.2433,2.0,34.7543,11111222 
TABS,ioos:station:wmo:42050:1,2014-04-01T18:30:00Z,28.8425,-94.2433,2.0,34.75,11111222 
TABS,ioos:station:wmo:42050:1,2014-04-01T19:00:00Z,28.8425,-94.2433,2.0,34.756,11111222 
TABS,ioos:station:wmo:42050:1,2014-04-01T19:30:00Z,28.8425,-94.2433,2.0,34.7535,11111222 
TABS,ioos:station:wmo:42050:1,2014-04-01T20:00:00Z,28.8425,-94.2433,2.0,34.7559,11111222 
TABS,ioos:station:wmo:42050:1,2014-04-01T20:30:00Z,28.8425,-94.2433,2.0,34.7498,11111222 
TABS,ioos:station:wmo:42050:1,2014-04-01T21:00:00Z,28.8425,-94.2433,2.0,34.7559,11111222 
TABS,ioos:station:wmo:42050:1,2014-04-01T21:30:00Z,28.8425,-94.2433,2.0,34.7537,11111222 
TABS,ioos:station:wmo:42050:1,2014-04-01T22:00:00Z,28.8425,-94.2433,2.0,34.746,11111222 
TABS,ioos:station:wmo:42050:1,2014-04-01T22:30:00Z,28.8425,-94.2433,2.0,34.7615,11111222 
TABS,ioos:station:wmo:42050:1,2014-04-01T23:00:00Z,28.8425,-94.2433,2.0,34.7477,11111222 
TABS,ioos:station:wmo:42050:1,2014-04-01T23:30:00Z,28.8425,-94.2433,2.0,34.7504,11111222 
TABS,ioos:station:wmo:42050:1,2014-04-02T00:00:00Z,28.8425,-94.2433,2.0,34.7529,11111222 
TABS,ioos:station:wmo:42050:1,2014-04-02T00:30:00Z,28.8425,-94.2433,2.0,34.7482,11111222 
TABS,ioos:station:wmo:42050:1,2014-04-02T01:00:00Z,28.8425,-94.2433,2.0,34.7506,11111222 
TABS,ioos:station:wmo:42050:1,2014-04-02T01:30:00Z,28.8425,-94.2433,2.0,34.7444,11111222 
TABS,ioos:station:wmo:42050:1,2014-04-02T02:00:00Z,28.8425,-94.2433,2.0,34.7329,11111222 
TABS,ioos:station:wmo:42050:1,2014-04-02T02:30:00Z,28.8425,-94.2433,2.0,34.7219,11111222 
TABS,ioos:station:wmo:42050:1,2014-04-02T03:00:00Z,28.8425,-94.2433,2.0,34.6943,11111222 
TABS,ioos:station:wmo:42050:1,2014-04-02T03:30:00Z,28.8425,-94.2433,2.0,34.6775,11111222 
TABS,ioos:station:wmo:42050:1,2014-04-02T04:00:00Z,28.8425,-94.2433,2.0,34.6705,11111222 
TABS,ioos:station:wmo:42050:1,2014-04-02T04:30:00Z,28.8425,-94.2433,2.0,34.6663,11111222 
TABS,ioos:station:wmo:42050:1,2014-04-02T05:00:00Z,28.8425,-94.2433,2.0,34.6554,11111222 
TABS,ioos:station:wmo:42050:1,2014-04-02T05:30:00Z,28.8425,-94.2433,2.0,34.668,11111222 
TABS,ioos:station:wmo:42050:1,2014-04-02T06:00:00Z,28.8425,-94.2433,2.0,34.6588,11111222 
TABS,ioos:station:wmo:42050:1,2014-04-02T06:30:00Z,28.8425,-94.2433,2.0,34.6545,11111222 
TABS,ioos:station:wmo:42050:1,2014-04-02T07:00:00Z,28.8425,-94.2433,2.0,34.6631,11111222 
TABS,ioos:station:wmo:42050:1,2014-04-02T07:30:00Z,28.8425,-94.2433,2.0,34.6739,11111222 
TABS,ioos:station:wmo:42050:1,2014-04-02T08:00:00Z,28.8425,-94.2433,2.0,34.6879,11111222 
TABS,ioos:station:wmo:42050:1,2014-04-02T08:30:00Z,28.8425,-94.2433,2.0,34.6902,11111222 
TABS,ioos:station:wmo:42050:1,2014-04-02T09:00:00Z,28.8425,-94.2433,2.0,34.6913,11111222 
TABS,ioos:station:wmo:42050:1,2014-04-02T09:30:00Z,28.8425,-94.2433,2.0,34.6931,11111222 
TABS,ioos:station:wmo:42050:1,2014-04-02T10:00:00Z,28.8425,-94.2433,2.0,34.6951,11111222 
TABS,ioos:station:wmo:42050:1,2014-04-02T10:30:00Z,28.8425,-94.2433,2.0,34.6937,11111222 
TABS,ioos:station:wmo:42050:1,2014-04-02T11:00:00Z,28.8425,-94.2433,2.0,34.6941,11111222 
TABS,ioos:station:wmo:42050:1,2014-04-02T11:30:00Z,28.8425,-94.2433,2.0,34.6957,11111222 
TABS,ioos:station:wmo:42050:1,2014-04-02T12:00:00Z,28.8425,-94.2433,2.0,34.6973,11111222 
TABS,ioos:station:wmo:42050:1,2014-04-02T12:30:00Z,28.8425,-94.2433,2.0,34.6978,11111222 
TABS,ioos:station:wmo:42050:1,2014-04-02T13:00:00Z,28.8425,-94.2433,2.0,34.6961,11111222 
TABS,ioos:station:wmo:42050:1,2014-04-02T13:30:00Z,28.8425,-94.2433,2.0,34.6959,11111222 
TABS,ioos:station:wmo:42050:1,2014-04-02T14:00:00Z,28.8425,-94.2433,2.0,34.6926,11111222 
TABS,ioos:station:wmo:42050:1,2014-04-02T14:30:00Z,28.8425,-94.2433,2.0,34.693,11111222 
TABS,ioos:station:wmo:42050:1,2014-04-02T15:00:00Z,28.8425,-94.2433,2.0,34.6929,11111222 
TABS,ioos:station:wmo:42050:1,2014-04-02T15:30:00Z,28.8425,-94.2433,2.0,34.6932,11111222 
TABS,ioos:station:wmo:42050:1,2014-04-02T16:00:00Z,28.8425,-94.2433,2.0,34.6944,11111222 
TABS,ioos:station:wmo:42050:1,2014-04-02T16:30:00Z,28.8425,-94.2433,2.0,34.6884,11111222 
TABS,ioos:station:wmo:42050:1,2014-04-02T17:00:00Z,28.8425,-94.2433,2.0,34.6852,11111222 
TABS,ioos:station:wmo:42050:1,2014-04-02T17:30:00Z,28.8425,-94.2433,2.0,34.6834,11111222 
TABS,ioos:station:wmo:42050:1,2014-04-02T18:00:00Z,28.8425,-94.2433,2.0,34.6773,11111222 
TABS,ioos:station:wmo:42050:1,2014-04-02T18:30:00Z,28.8425,-94.2433,2.0,34.6787,11111222 
TABS,ioos:station:wmo:42050:1,2014-04-02T19:00:00Z,28.8425,-94.2433,2.0,34.6763,11111222 
TABS,ioos:station:wmo:42050:1,2014-04-02T19:30:00Z,28.8425,-94.2433,2.0,34.672,11111222 
TABS,ioos:station:wmo:42050:1,2014-04-02T21:00:00Z,28.8425,-94.2433,2.0,34.6694,11111222 
TABS,ioos:station:wmo:42050:1,2014-04-02T21:30:00Z,28.8425,-94.2433,2.0,34.665,11111222 
TABS,ioos:station:wmo:42050:1,2014-04-02T22:00:00Z,28.8425,-94.2433,2.0,34.6651,11111222 
TABS,ioos:station:wmo:42050:1,2014-04-02T22:30:00Z,28.8425,-94.2433,2.0,34.6704,11111222 
TABS,ioos:station:wmo:42050:1,2014-04-02T23:00:00Z,28.8425,-94.2433,2.0,34.6658,11111222 
TABS,ioos:station:wmo:42050:1,2014-04-02T23:30:00Z,28.8425,-94.2433,2.0,34.6744,11111222 
TABS,ioos:station:wmo:42050:1,2014-04-03T00:00:00Z,28.8425,-94.2433,2.0,34.676,11111222 
TABS,ioos:station:wmo:42050:1,2014-04-03T00:30:00Z,28.8425,-94.2433,2.0,34.6753,11111222 
TABS,ioos:station:wmo:42050:1,2014-04-03T01:00:00Z,28.8425,-94.2433,2.0,34.6703,11111222 
TABS,ioos:station:wmo:42050:1,2014-04-03T01:30:00Z,28.8425,-94.2433,2.0,34.6718,11111222 
TABS,ioos:station:wmo:42050:1,2014-04-03T02:00:00Z,28.8425,-94.2433,2.0,34.6755,11111222 
TABS,ioos:station:wmo:42050:1,2014-04-03T02:30:00Z,28.8425,-94.2433,2.0,34.6772,11111222 
TABS,ioos:station:wmo:42050:1,2014-04-03T03:00:00Z,28.8425,-94.2433,2.0,34.6814,11111222 
TABS,ioos:station:wmo:42050:1,2014-04-03T03:30:00Z,28.8425,-94.2433,2.0,34.684,11111222 
TABS,ioos:station:wmo:42050:1,2014-04-03T04:00:00Z,28.8425,-94.2433,2.0,34.6849,11111222 
TABS,ioos:station:wmo:42050:1,2014-04-03T04:30:00Z,28.8425,-94.2433,2.0,34.6867,11111222 
TABS,ioos:station:wmo:42050:1,2014-04-03T05:00:00Z,28.8425,-94.2433,2.0,34.6863,11111222 
TABS,ioos:station:wmo:42050:1,2014-04-03T05:30:00Z,28.8425,-94.2433,2.0,34.6845,11111222 
TABS,ioos:station:wmo:42050:1,2014-04-03T06:00:00Z,28.8425,-94.2433,2.0,34.6859,11111222 
TABS,ioos:station:wmo:42050:1,2014-04-03T06:30:00Z,28.8425,-94.2433,2.0,34.6834,11111222 
TABS,ioos:station:wmo:42050:1,2014-04-03T07:00:00Z,28.8425,-94.2433,2.0,34.6855,11111222 
TABS,ioos:station:wmo:42050:1,2014-04-03T07:30:00Z,28.8425,-94.2433,2.0,34.6854,11111222 
TABS,ioos:station:wmo:42050:1,2014-04-03T08:00:00Z,28.8425,-94.2433,2.0,34.6853,11111222 
TABS,ioos:station:wmo:42050:1,2014-04-03T08:30:00Z,28.8425,-94.2433,2.0,34.6851,11111222 
TABS,ioos:station:wmo:42050:1,2014-04-03T09:00:00Z,28.8425,-94.2433,2.0,34.6853,11111222 
TABS,ioos:station:wmo:42050:1,2014-04-03T09:30:00Z,28.8425,-94.2433,2.0,34.6831,11111222 
TABS,ioos:station:wmo:42050:1,2014-04-03T10:00:00Z,28.8425,-94.2433,2.0,34.6829,11111222 
TABS,ioos:station:wmo:42050:1,2014-04-03T10:30:00Z,28.8425,-94.2433,2.0,34.6835,11111222 
TABS,ioos:station:wmo:42050:1,2014-04-03T11:00:00Z,28.8425,-94.2433,2.0,34.6842,11111222 
TABS,ioos:station:wmo:42050:1,2014-04-03T11:30:00Z,28.8425,-94.2433,2.0,34.6836,11111222 
TABS,ioos:station:wmo:42050:1,2014-04-03T12:00:00Z,28.8425,-94.2433,2.0,34.6803,11111222 
TABS,ioos:station:wmo:42050:1,2014-04-03T12:30:00Z,28.8425,-94.2433,2.0,34.676,11111222 
TABS,ioos:station:wmo:42050:1,2014-04-03T13:00:00Z,28.8425,-94.2433,2.0,34.678,11111222 
TABS,ioos:station:wmo:42050:1,2014-04-03T13:30:00Z,28.8425,-94.2433,2.0,34.6757,11111222 
TABS,ioos:station:wmo:42050:1,2014-04-03T14:00:00Z,28.8425,-94.2433,2.0,34.6729,11111222 
TABS,ioos:station:wmo:42050:1,2014-04-03T14:30:00Z,28.8425,-94.2433,2.0,34.6757,11111222 
TABS,ioos:station:wmo:42050:1,2014-04-03T15:00:00Z,28.8425,-94.2433,2.0,34.6756,11111222 
TABS,ioos:station:wmo:42050:1,2014-04-03T15:30:00Z,28.8425,-94.2433,2.0,34.6743,11111222 
TABS,ioos:station:wmo:42050:1,2014-04-03T16:00:00Z,28.8425,-94.2433,2.0,34.6762,11111222 
TABS,ioos:station:wmo:42050:1,2014-04-03T16:30:00Z,28.8425,-94.2433,2.0,34.6734,11111222 
TABS,ioos:station:wmo:42050:1,2014-04-03T17:00:00Z,28.8425,-94.2433,2.0,34.6708,11111222 
TABS,ioos:station:wmo:42050:1,2014-04-03T17:30:00Z,28.8425,-94.2433,2.0,34.6696,11111222 
TABS,ioos:station:wmo:42050:1,2014-04-03T18:00:00Z,28.8425,-94.2433,2.0,34.6718,11111222 
TABS,ioos:station:wmo:42050:1,2014-04-03T18:30:00Z,28.8425,-94.2433,2.0,34.6723,11111222 
TABS,ioos:station:wmo:42050:1,2014-04-03T19:00:00Z,28.8425,-94.2433,2.0,34.6702,11111222 
TABS,ioos:station:wmo:42050:1,2014-04-03T19:30:00Z,28.8425,-94.2433,2.0,34.6705,11111222 
TABS,ioos:station:wmo:42050:1,2014-04-03T20:00:00Z,28.8425,-94.2433,2.0,34.6682,11111222 
TABS,ioos:station:wmo:42050:1,2014-04-03T20:30:00Z,28.8425,-94.2433,2.0,34.6675,11111222 
TABS,ioos:station:wmo:42050:1,2014-04-03T21:00:00Z,28.8425,-94.2433,2.0,34.6652,11111222 
TABS,ioos:station:wmo:42050:1,2014-04-03T21:30:00Z,28.8425,-94.2433,2.0,34.6623,11111222 
TABS,ioos:station:wmo:42050:1,2014-04-03T22:00:00Z,28.8425,-94.2433,2.0,34.6605,11111222 
TABS,ioos:station:wmo:42050:1,2014-04-03T22:30:00Z,28.8425,-94.2433,2.0,34.6583,11111222 
TABS,ioos:station:wmo:42050:1,2014-04-03T23:00:00Z,28.8425,-94.2433,2.0,34.6577,11111222 
TABS,ioos:station:wmo:42050:1,2014-04-03T23:30:00Z,28.8425,-94.2433,2.0,34.6544,11111222 
TABS,ioos:station:wmo:42050:1,2014-04-04T00:00:00Z,28.8425,-94.2433,2.0,34.6497,11111222 
TABS,ioos:station:wmo:42050:1,2014-04-04T00:30:00Z,28.8425,-94.2433,2.0,34.6442,11111222 
TABS,ioos:station:wmo:42050:1,2014-04-04T01:00:00Z,28.8425,-94.2433,2.0,34.6345,11111222 
TABS,ioos:station:wmo:42050:1,2014-04-04T01:30:00Z,28.8425,-94.2433,2.0,34.6149,11111222 
TABS,ioos:station:wmo:42050:1,2014-04-04T02:00:00Z,28.8425,-94.2433,2.0,34.6113,11111222 
TABS,ioos:station:wmo:42050:1,2014-04-04T02:30:00Z,28.8425,-94.2433,2.0,34.5987,11111222 
TABS,ioos:station:wmo:42050:1,2014-04-04T03:00:00Z,28.8425,-94.2433,2.0,34.5901,11111222 
TABS,ioos:station:wmo:42050:1,2014-04-04T03:30:00Z,28.8425,-94.2433,2.0,34.5853,11111222 
TABS,ioos:station:wmo:42050:1,2014-04-04T04:00:00Z,28.8425,-94.2433,2.0,34.5778,11111222 
TABS,ioos:station:wmo:42050:1,2014-04-04T04:30:00Z,28.8425,-94.2433,2.0,34.5705,11111222 
TABS,ioos:station:wmo:42050:1,2014-04-04T05:00:00Z,28.8425,-94.2433,2.0,34.558,11111222 
TABS,ioos:station:wmo:42050:1,2014-04-04T05:30:00Z,28.8425,-94.2433,2.0,34.55,11111222 
TABS,ioos:station:wmo:42050:1,2014-04-04T06:00:00Z,28.8425,-94.2433,2.0,34.53,11111222 
TABS,ioos:station:wmo:42050:1,2014-04-04T06:30:00Z,28.8425,-94.2433,2.0,34.5113,11111222 
TABS,ioos:station:wmo:42050:1,2014-04-04T07:00:00Z,28.8425,-94.2433,2.0,34.4894,11111222 
TABS,ioos:station:wmo:42050:1,2014-04-04T07:30:00Z,28.8425,-94.2433,2.0,34.4766,11111222 
TABS,ioos:station:wmo:42050:1,2014-04-04T08:00:00Z,28.8425,-94.2433,2.0,34.4652,11111222 
TABS,ioos:station:wmo:42050:1,2014-04-04T08:30:00Z,28.8425,-94.2433,2.0,34.4694,11111222 
TABS,ioos:station:wmo:42050:1,2014-04-04T09:00:00Z,28.8425,-94.2433,2.0,34.4791,11111222 
TABS,ioos:station:wmo:42050:1,2014-04-04T09:30:00Z,28.8425,-94.2433,2.0,34.49,11111222 
TABS,ioos:station:wmo:42050:1,2014-04-04T10:00:00Z,28.8425,-94.2433,2.0,34.489,11111222 
TABS,ioos:station:wmo:42050:1,2014-04-04T10:30:00Z,28.8425,-94.2433,2.0,34.5008,11111222 
TABS,ioos:station:wmo:42050:1,2014-04-04T11:00:00Z,28.8425,-94.2433,2.0,34.5084,11111222 
TABS,ioos:station:wmo:42050:1,2014-04-04T11:30:00Z,28.8425,-94.2433,2.0,34.5081,11111222 
TABS,ioos:station:wmo:42050:1,2014-04-04T12:00:00Z,28.8425,-94.2433,2.0,34.5182,11111222 
TABS,ioos:station:wmo:42050:1,2014-04-04T12:30:00Z,28.8425,-94.2433,2.0,34.5146,11111222 
TABS,ioos:station:wmo:42050:1,2014-04-04T13:00:00Z,28.8425,-94.2433,2.0,34.5268,11111222 
TABS,ioos:station:wmo:42050:1,2014-04-04T13:30:00Z,28.8425,-94.2433,2.0,34.5374,11111222 
TABS,ioos:station:wmo:42050:1,2014-04-04T14:00:00Z,28.8425,-94.2433,2.0,34.5502,11111222 
TABS,ioos:station:wmo:42050:1,2014-04-04T14:30:00Z,28.8425,-94.2433,2.0,34.565,11111222 
TABS,ioos:station:wmo:42050:1,2014-04-04T15:00:00Z,28.8425,-94.2433,2.0,34.6249,11111222 
TABS,ioos:station:wmo:42050:1,2014-04-04T15:30:00Z,28.8425,-94.2433,2.0,34.5694,11111222 
TABS,ioos:station:wmo:42050:1,2014-04-04T16:00:00Z,28.8425,-94.2433,2.0,34.6244,11111222 
TABS,ioos:station:wmo:42050:1,2014-04-04T16:30:00Z,28.8425,-94.2433,2.0,34.6591,11111222 
TABS,ioos:station:wmo:42050:1,2014-04-04T17:00:00Z,28.8425,-94.2433,2.0,34.7269,11111222 
TABS,ioos:station:wmo:42050:1,2014-04-04T17:30:00Z,28.8425,-94.2433,2.0,34.6656,11111222 
TABS,ioos:station:wmo:42050:1,2014-04-04T18:00:00Z,28.8425,-94.2433,2.0,34.6703,11111222 
TABS,ioos:station:wmo:42050:1,2014-04-04T18:30:00Z,28.8425,-94.2433,2.0,34.6965,11111222 
TABS,ioos:station:wmo:42050:1,2014-04-04T19:00:00Z,28.8425,-94.2433,2.0,34.6968,11111222 
TABS,ioos:station:wmo:42050:1,2014-04-04T19:30:00Z,28.8425,-94.2433,2.0,34.7071,11111222 
TABS,ioos:station:wmo:42050:1,2014-04-04T20:00:00Z,28.8425,-94.2433,2.0,34.688,11111222 
TABS,ioos:station:wmo:42050:1,2014-04-04T20:30:00Z,28.8425,-94.2433,2.0,34.6926,11111222 
TABS,ioos:station:wmo:42050:1,2014-04-04T21:00:00Z,28.8425,-94.2433,2.0,34.6932,11111222 
TABS,ioos:station:wmo:42050:1,2014-04-04T21:30:00Z,28.8425,-94.2433,2.0,34.6512,11111222 
TABS,ioos:station:wmo:42050:1,2014-04-04T22:00:00Z,28.8425,-94.2433,2.0,34.6423,11111222 
TABS,ioos:station:wmo:42050:1,2014-04-04T22:30:00Z,28.8425,-94.2433,2.0,34.6269,11111222 
TABS,ioos:station:wmo:42050:1,2014-04-04T23:00:00Z,28.8425,-94.2433,2.0,34.6167,11111222 
TABS,ioos:station:wmo:42050:1,2014-04-04T23:30:00Z,28.8425,-94.2433,2.0,34.6105,11111222 
TABS,ioos:station:wmo:42050:1,2014-04-05T00:00:00Z,28.8425,-94.2433,2.0,34.6135,11111222 
TABS,ioos:station:wmo:42050:1,2014-04-05T00:30:00Z,28.8425,-94.2433,2.0,34.6158,11111222 
TABS,ioos:station:wmo:42050:1,2014-04-05T01:00:00Z,28.8425,-94.2433,2.0,34.6215,11111222 
TABS,ioos:station:wmo:42050:1,2014-04-05T01:30:00Z,28.8425,-94.2433,2.0,34.6335,11111222 
TABS,ioos:station:wmo:42050:1,2014-04-05T02:00:00Z,28.8425,-94.2433,2.0,34.651,11111222 
TABS,ioos:station:wmo:42050:1,2014-04-05T02:30:00Z,28.8425,-94.2433,2.0,34.6585,11111222 
TABS,ioos:station:wmo:42050:1,2014-04-05T03:00:00Z,28.8425,-94.2433,2.0,34.6699,11111222 
TABS,ioos:station:wmo:42050:1,2014-04-05T03:30:00Z,28.8425,-94.2433,2.0,34.6696,11111222 
TABS,ioos:station:wmo:42050:1,2014-04-05T04:00:00Z,28.8425,-94.2433,2.0,34.6737,11111222 
TABS,ioos:station:wmo:42050:1,2014-04-05T04:30:00Z,28.8425,-94.2433,2.0,34.6808,11111222 
TABS,ioos:station:wmo:42050:1,2014-04-05T05:00:00Z,28.8425,-94.2433,2.0,34.6874,11111222 
TABS,ioos:station:wmo:42050:1,2014-04-05T05:30:00Z,28.8425,-94.2433,2.0,34.5714,11111222 
TABS,ioos:station:wmo:42050:1,2014-04-05T06:00:00Z,28.8425,-94.2433,2.0,34.4192,11111222 
TABS,ioos:station:wmo:42050:1,2014-04-05T06:30:00Z,28.8425,-94.2433,2.0,34.361,11111222 
TABS,ioos:station:wmo:42050:1,2014-04-05T07:00:00Z,28.8425,-94.2433,2.0,34.3573,11111222 
TABS,ioos:station:wmo:42050:1,2014-04-05T07:30:00Z,28.8425,-94.2433,2.0,34.3933,11111222 
TABS,ioos:station:wmo:42050:1,2014-04-05T08:00:00Z,28.8425,-94.2433,2.0,34.3058,11111222 
TABS,ioos:station:wmo:42050:1,2014-04-05T08:30:00Z,28.8425,-94.2433,2.0,34.2957,11111222 
TABS,ioos:station:wmo:42050:1,2014-04-05T09:00:00Z,28.8425,-94.2433,2.0,34.3315,11111222 
TABS,ioos:station:wmo:42050:1,2014-04-05T09:30:00Z,28.8425,-94.2433,2.0,34.3234,11111222 
TABS,ioos:station:wmo:42050:1,2014-04-05T10:00:00Z,28.8425,-94.2433,2.0,34.1768,11111222 
TABS,ioos:station:wmo:42050:1,2014-04-05T10:30:00Z,28.8425,-94.2433,2.0,34.1975,11111222 
TABS,ioos:station:wmo:42050:1,2014-04-05T11:00:00Z,28.8425,-94.2433,2.0,34.2701,11111222 
TABS,ioos:station:wmo:42050:1,2014-04-05T11:30:00Z,28.8425,-94.2433,2.0,34.3038,11111222 
TABS,ioos:station:wmo:42050:1,2014-04-05T12:00:00Z,28.8425,-94.2433,2.0,34.3472,11111222 
TABS,ioos:station:wmo:42050:1,2014-04-05T12:30:00Z,28.8425,-94.2433,2.0,34.2902,11111222 
TABS,ioos:station:wmo:42050:1,2014-04-05T13:00:00Z,28.8425,-94.2433,2.0,34.3021,11111222 
TABS,ioos:station:wmo:42050:1,2014-04-05T13:30:00Z,28.8425,-94.2433,2.0,34.3248,11111222 
TABS,ioos:station:wmo:42050:1,2014-04-05T14:00:00Z,28.8425,-94.2433,2.0,34.3527,11111222 
TABS,ioos:station:wmo:42050:1,2014-04-05T14:30:00Z,28.8425,-94.2433,2.0,34.329,11111222 
TABS,ioos:station:wmo:42050:1,2014-04-05T15:00:00Z,28.8425,-94.2433,2.0,34.3228,11111222 
TABS,ioos:station:wmo:42050:1,2014-04-05T15:30:00Z,28.8425,-94.2433,2.0,34.2629,11111222 
TABS,ioos:station:wmo:42050:1,2014-04-05T16:00:00Z,28.8425,-94.2433,2.0,34.2611,11111222 
TABS,ioos:station:wmo:42050:1,2014-04-05T16:30:00Z,28.8425,-94.2433,2.0,34.205,11111222 
TABS,ioos:station:wmo:42050:1,2014-04-05T17:00:00Z,28.8425,-94.2433,2.0,34.1866,11111222 
TABS,ioos:station:wmo:42050:1,2014-04-05T17:30:00Z,28.8425,-94.2433,2.0,34.1754,11111222 
TABS,ioos:station:wmo:42050:1,2014-04-05T18:00:00Z,28.8425,-94.2433,2.0,34.1439,11111222 
TABS,ioos:station:wmo:42050:1,2014-04-05T18:30:00Z,28.8425,-94.2433,2.0,34.1517,11111222 
TABS,ioos:station:wmo:42050:1,2014-04-05T19:00:00Z,28.8425,-94.2433,2.0,34.1696,11111222 
TABS,ioos:station:wmo:42050:1,2014-04-05T19:30:00Z,28.8425,-94.2433,2.0,34.1723,11111222 
TABS,ioos:station:wmo:42050:1,2014-04-05T20:00:00Z,28.8425,-94.2433,2.0,34.1214,11111222 
TABS,ioos:station:wmo:42050:1,2014-04-05T20:30:00Z,28.8425,-94.2433,2.0,34.1391,11111222 
TABS,ioos:station:wmo:42050:1,2014-04-05T21:00:00Z,28.8425,-94.2433,2.0,34.1105,11111222 
TABS,ioos:station:wmo:42050:1,2014-04-05T21:30:00Z,28.8425,-94.2433,2.0,34.1183,11111222 
TABS,ioos:station:wmo:42050:1,2014-04-05T22:00:00Z,28.8425,-94.2433,2.0,34.1072,11111222 
TABS,ioos:station:wmo:42050:1,2014-04-05T22:30:00Z,28.8425,-94.2433,2.0,34.1076,11111222 
TABS,ioos:station:wmo:42050:1,2014-04-05T23:00:00Z,28.8425,-94.2433,2.0,34.1063,11111222 
TABS,ioos:station:wmo:42050:1,2014-04-05T23:30:00Z,28.8425,-94.2433,2.0,34.1095,11111222 
TABS,ioos:station:wmo:42050:1,2014-04-06T00:00:00Z,28.8425,-94.2433,2.0,34.0925,11111222 
TABS,ioos:station:wmo:42050:1,2014-04-06T00:30:00Z,28.8425,-94.2433,2.0,34.0862,11111222 
TABS,ioos:station:wmo:42050:1,2014-04-06T01:00:00Z,28.8425,-94.2433,2.0,34.0544,11111222 
TABS,ioos:station:wmo:42050:1,2014-04-06T01:30:00Z,28.8425,-94.2433,2.0,34.0293,11111222 
TABS,ioos:station:wmo:42050:1,2014-04-06T02:00:00Z,28.8425,-94.2433,2.0,33.9916,11111222 
TABS,ioos:station:wmo:42050:1,2014-04-06T02:30:00Z,28.8425,-94.2433,2.0,34.004,11111222 
TABS,ioos:station:wmo:42050:1,2014-04-06T03:00:00Z,28.8425,-94.2433,2.0,34.0089,11111222 
TABS,ioos:station:wmo:42050:1,2014-04-06T03:30:00Z,28.8425,-94.2433,2.0,34.0281,11111222 
TABS,ioos:station:wmo:42050:1,2014-04-06T04:00:00Z,28.8425,-94.2433,2.0,34.03,11111222 
TABS,ioos:station:wmo:42050:1,2014-04-06T04:30:00Z,28.8425,-94.2433,2.0,34.048,11111222 
TABS,ioos:station:wmo:42050:1,2014-04-06T05:00:00Z,28.8425,-94.2433,2.0,34.0091,11111222 
TABS,ioos:station:wmo:42050:1,2014-04-06T05:30:00Z,28.8425,-94.2433,2.0,34.0201,11111222 
TABS,ioos:station:wmo:42050:1,2014-04-06T06:00:00Z,28.8425,-94.2433,2.0,34.0102,11111222 
TABS,ioos:station:wmo:42050:1,2014-04-06T06:30:00Z,28.8425,-94.2433,2.0,33.9612,11111222 
TABS,ioos:station:wmo:42050:1,2014-04-06T07:00:00Z,28.8425,-94.2433,2.0,33.9626,11111222 
TABS,ioos:station:wmo:42050:1,2014-04-06T07:30:00Z,28.8425,-94.2433,2.0,33.9687,11111222 
TABS,ioos:station:wmo:42050:1,2014-04-06T08:00:00Z,28.8425,-94.2433,2.0,33.9948,11111222 
TABS,ioos:station:wmo:42050:1,2014-04-06T08:30:00Z,28.8425,-94.2433,2.0,34.0594,11111222 
TABS,ioos:station:wmo:42050:1,2014-04-06T09:00:00Z,28.8425,-94.2433,2.0,34.0519,11111222 
TABS,ioos:station:wmo:42050:1,2014-04-06T09:30:00Z,28.8425,-94.2433,2.0,34.0189,11111222 
TABS,ioos:station:wmo:42050:1,2014-04-06T10:00:00Z,28.8425,-94.2433,2.0,34.0148,11111222 
TABS,ioos:station:wmo:42050:1,2014-04-06T10:30:00Z,28.8425,-94.2433,2.0,34.0172,11111222 
TABS,ioos:station:wmo:42050:1,2014-04-06T11:00:00Z,28.8425,-94.2433,2.0,34.1213,11111222 
TABS,ioos:station:wmo:42050:1,2014-04-06T11:30:00Z,28.8425,-94.2433,2.0,34.1163,11111222 
TABS,ioos:station:wmo:42050:1,2014-04-06T12:00:00Z,28.8425,-94.2433,2.0,34.1395,11111222 
TABS,ioos:station:wmo:42050:1,2014-04-06T12:30:00Z,28.8425,-94.2433,2.0,34.1485,11111222 
TABS,ioos:station:wmo:42050:1,2014-04-06T13:00:00Z,28.8425,-94.2433,2.0,34.1958,11111222 
TABS,ioos:station:wmo:42050:1,2014-04-06T13:30:00Z,28.8425,-94.2433,2.0,34.2336,11111222 